Location: ??
(23.7389°N, 120.7850°E)
Time: 04:15:31
(UTC+00:00)

Daily predictions for brighter satellites

Satellite Brightness Start Highest point End
(mag) Time Altitude Azimuth Time Altitude Azimuth Time Altitude Azimuth
STARLINK-65 4.1 09:30:06 10° SSW 09:33:55 44° SE 09:37:44 10° NE
Cosmos 2278 Rocket 2.9 09:28:30 10° NNW 09:34:04 62° WSW 09:39:36 10° S
Cosmos 1975 4.5 09:32:58 10° NE 09:35:17 15° E 09:37:36 10° ESE
Genesis I 4.3 09:32:21 10° N 09:35:27 23° ENE 09:38:32 10° ESE
Cosmos 676 Rocket 4.0 09:30:29 10° S 09:35:37 73° ESE 09:40:46 10° NNE
Feng Yun 1-1 Rocket 4.1 09:31:06 10° SSE 09:36:27 73° ENE 09:41:50 10° N
CORIOLIS 4.2 09:33:20 10° SSE 09:38:42 64° ENE 09:44:05 10° N
STARLINK-69 3.8 09:35:00 10° SSW 09:38:54 53° SE 09:42:49 10° NE
SL-16 R/B 3.8 09:33:57 10° SW 09:39:06 36° WNW 09:44:17 10° N
STARLINK-66 3.8 09:36:37 10° SSW 09:40:31 53° SE 09:44:26 10° NE
Cosmos 1666 2.7 09:37:50 10° N 09:41:33 84° W 09:45:17 10° S
Cosmos 1954 Rocket 4.0 09:36:48 10° S 09:41:57 80° ESE 09:47:07 10° NNE
YAOGAN 6 3.8 09:41:00 10° SE 09:43:42 21° ENE 09:46:24 10° NNE
STARLINK-70 3.6 09:41:31 10° SSW 09:45:28 63° SE 09:49:26 10° NE
Cosmos 1603 3.8 09:40:45 10° S 09:46:18 58° ESE 09:51:55 10° NNE
STARLINK-68 3.5 09:43:15 10° SSW 09:47:14 71° SE 09:51:14 10° NE
ISS -3.1 09:44:22 10° NW 09:47:40 61° SW 09:50:59 10° SSE
STARLINK-58 3.5 09:44:47 10° SSW 09:48:46 71° SE 09:52:44 10° NE
SMAP 3.4 09:44:40 10° S 09:49:17 74° WSW 09:53:56 10° NNW
STARLINK-62 3.5 09:46:33 10° SW 09:50:32 78° SE 09:54:29 10° NE
OAO 2 Rocket 4.3 09:47:31 10° NW 09:51:55 30° NNE 09:55:45 13° ENE
Cosmos 1461 3.3 09:48:15 10° S 09:51:55 38° ESE 09:55:20 11° NE
STARLINK-63 3.5 09:48:05 10° SSW 09:52:05 77° SE 09:55:55 11° NE
Cosmos 1655 Rocket 4.1 09:48:46 10° SSE 09:54:54 54° E 10:00:59 10° NNE
Cosmos 1782 Rocket 3.5 09:50:44 10° N 09:55:01 67° E 09:59:19 10° SSE
STARLINK-72 3.5 09:51:18 10° SW 09:55:18 80° SE 09:58:58 12° NE
SKYMED 2 3.6 09:52:19 10° NNE 09:56:40 90° NNE 10:01:00 10° SSW
H-II Stage 2 2.5 09:51:07 10° W 09:57:10 88° N 09:59:04 14° E
STARLINK-59 3.5 09:54:39 10° SW 09:58:40 87° NW 10:02:16 13° NE
Delta 128 3.8 09:54:12 10° WSW 09:59:31 81° NNW 10:03:14 16° ENE
Cosmos 2221 Rocket 3.6 09:56:34 10° S 10:01:03 86° E 10:05:30 10° N
STARLINK-55 3.6 09:57:57 10° SW 10:01:58 81° NW 10:05:26 14° NE
STARLINK-28 3.6 09:59:39 10° SW 10:03:39 76° NW 10:07:05 14° NE
STARLINK-53 3.7 10:02:55 10° SW 10:06:55 69° NW 10:10:12 15° NNE
Envisat 2.9 10:02:23 10° SSE 10:07:27 80° ENE 10:12:32 10° N
Meteor 2-4 Rocket 3.9 10:01:42 10° S 10:07:30 60° E 10:13:13 10° NNE
Cosmos 1741 Rocket 4.3 10:02:52 10° S 10:07:54 47° ESE 10:12:43 11° NNE
Cosmos 1943 Rocket 3.4 10:04:09 10° NNE 10:07:56 18° ENE 10:09:12 17° E
STARLINK-54 3.8 10:04:36 10° SW 10:08:35 65° NW 10:11:50 15° NNE
Okean 2 Rocket 3.6 10:04:44 10° NNE 10:08:54 36° E 10:13:03 10° SSE
CSL-04 Rocket 4.3 10:05:46 10° SE 10:10:21 31° ENE 10:14:56 10° NNE
SEDSat Delta rocket 4.1 10:05:04 10° WSW 10:11:40 70° SSE 10:16:31 20° ENE
STARLINK-34 4.0 10:07:57 10° SW 10:11:54 59° NW 10:15:02 16° NNE
Sich 1 Rocket 3.5 10:09:12 10° N 10:13:35 84° E 10:17:58 10° S
STARLINK-81 3.9 10:11:02 10° SW 10:14:59 62° NW 10:17:53 18° NNE
STARLINK-24 4.2 10:12:57 10° SW 10:16:51 52° NW 10:19:46 17° NNE
STARLINK-77 4.0 10:14:25 10° SW 10:18:20 56° NW 10:21:06 18° NNE
Cosmos 1743 2.9 10:14:33 10° N 10:18:24 72° W 10:22:16 10° S
Cosmos 2084 Rocket 3.4 10:14:34 10° SSW 10:18:55 83° ESE 10:21:59 19° NNE
CZ-3B R/B 1.4 10:15:28 10° WSW 10:19:27 89° S 10:23:27 24° ENE
STARLINK-25 4.1 10:16:03 10° SW 10:19:58 53° NW 10:22:41 19° NNE
USA 116 4.3 10:16:44 10° N 10:21:48 79° WNW 10:26:20 10° SSW
STARLINK-71 4.5 10:18:02 10° WSW 10:21:52 44° NW 10:24:36 17° NNE
STARLINK-79 4.3 10:19:26 10° SW 10:23:19 48° NW 10:25:53 19° NNE
STARLINK-78 4.4 10:21:07 10° WSW 10:24:58 45° NW 10:27:29 19° NNE
Cosmos 1850 Rocket 3.9 10:20:01 10° S 10:25:12 79° ESE 10:30:03 12° NNE
Cosmos 1674 Rocket 3.6 10:22:40 10° S 10:27:01 58° E 10:30:09 18° NNE
IRIDIUM 106 4.2 10:21:58 10° S 10:27:07 67° E 10:32:17 10° N
CSL-04 Debris 4.2 10:26:18 10° SSE 10:31:37 55° ENE 10:36:55 10° N
Cosmos 2266 Rocket 4.0 10:25:26 10° S 10:31:49 76° E 10:38:12 10° N
Sakura Rocket 4.0 10:26:42 10° WNW 10:31:52 58° N 10:35:15 29° ENE
Cosmos 405 2.8 10:31:17 10° S 10:34:45 66° E 10:35:27 51° NE
Shenzhou-11 Module 3.9 10:33:36 10° NNW 10:34:30 17° NNW 10:34:30 17° NNW
Okean-O 4.2 10:32:23 10° SSW 10:36:28 36° W 10:40:33 10° NNW
YAOGAN 1 2.4 10:32:28 10° SSE 10:36:44 66° ENE 10:41:01 10° N
S3M 3.8 10:33:52 10° N 10:40:00 75° E 10:46:05 10° S
Cosmos 2297 4.4 10:36:57 10° NNW 10:42:27 54° WSW 10:47:54 10° S
CZ-4 R/B 1.5 10:38:35 10° S 10:42:29 71° WSW 10:46:21 10° NNW
Cosmos 1378 Rocket 3.4 10:39:33 10° S 10:43:48 65° E 10:44:43 50° NE
CZ-4C R/B 3.4 10:39:48 10° WSW 10:43:58 31° WNW 10:48:28 11° N
NOSS 2-1 (E) 2.8 10:41:57 10° SSW 10:45:44 78° ESE 10:45:44 78° ESE
Cosmos 1300 Rocket 3.3 10:42:20 10° N 10:46:39 78° E 10:50:57 10° S
Cosmos 405 Rocket 2.5 10:50:03 61° NNW 10:50:40 87° W 10:54:26 10° S
Cosmos 1553 Rocket 4.5 10:44:33 10° NNW 10:50:51 63° W 10:57:09 10° S
Meteor 1-12 Rocket 4.1 10:46:11 10° N 10:51:56 69° E 10:57:33 10° SSE
GPS 2-14 Rocket1 3.5 10:49:03 10° WSW 10:52:47 39° S 10:52:51 39° SSE
ATLAS 3B CENTAUR R/B 3.7 10:48:35 10° SW 10:54:55 54° SE 11:00:31 33° E
ADEOS Rocket 2.8 10:54:30 49° ENE 10:55:16 53° ESE 11:00:54 10° S
NOAA 11 4.0 10:52:49 10° SSE 10:58:15 80° ENE 11:03:43 10° N
Lacrosse 5 4.3 10:55:54 10° W 10:58:44 15° NW 11:01:33 10° NNW
Fermi 4.0 10:56:19 10° W 10:59:50 59° NW 10:59:50 59° NW
Aureole 3 Rocket 3.8 11:02:53 31° NW 11:03:55 40° W 11:07:35 10° SSW
SWIFT 3.6 11:06:56 10° WSW 11:10:42 34° SSW 11:10:42 34° SSW
Cosmos 1867 3.6 11:05:53 10° NNW 11:11:19 76° WSW 11:16:41 10° SSE
Centaur D-1AR AC-41 3.8 11:08:06 10° W 11:11:48 50° S 11:13:41 37° SE
OAO 3 Rocket 4.2 11:11:35 10° NW 11:14:32 35° NW 11:14:32 35° NW
USA 267 3.1 11:14:50 38° SE 11:17:37 86° NE 11:24:10 10° NW
Meteor 1-23 Rocket 4.3 11:15:04 10° SSW 11:20:46 75° W 11:21:58 56° NNW
Cosmos 2315 Rocket 4.4 11:28:07 49° SSE 11:28:07 49° SSE 11:32:32 10° S
Cosmos 2369 Rocket 3.6 11:22:53 10° NNW 11:25:12 26° NNW 11:25:12 26° NNW
H-II Stage 2 3.4 11:27:03 10° WNW 11:39:20 57° NW 11:39:20 57° NW
Cosmos 1943 Rocket 3.4 11:46:34 10° NW 11:57:24 - S 11:51:12 38° W
